Weather observations for the past three days for
Coffeyville, Coffeyville Municipal Airport
Imperial (Metric)
Date Time (cdt) Wind (mph) Vis. (mi.) Weather Sky Cond. Temperature (ºF) Relative Humidity Wind Chill (°F) Heat Index (°F) Pressure Precipitation (in)
Air Dwpt 6 hour altimeter (in) sea level (mb) 1 hr 3 hr 6 hr
Max. Min.
20 13:52 S 8 10.00 A Few Clouds FEW110 82 64.9 56% 84 30.04 1016.7
20 12:52 S 3 10.00 A Few Clouds FEW100 79 63 79 69.1 58% 81 30.06 1017.4
20 11:52 SE 7 10.00 Fair CLR 78.1 63 60% 80 30.06 1017.4
20 10:52 S 5 10.00 Fair CLR 77 63 62% 79 30.07 1017.7
20 09:52 S 9 10.00 Fair CLR 75 62.1 64% 77 30.08 1018.0
20 08:52 S 7 10.00 Partly Cloudy SCT120 72 62.1 71% 30.08 1018.1
20 07:52 S 6 10.00 Fair CLR 69.1 61 76% 30.07 1017.7
20 06:52 S 6 10.00 Fair CLR 69.1 60.1 69.1 64.9 73% 30.05 1017.0
20 05:52 SE 8 10.00 Fair CLR 66.9 60.1 79% 30.04 1016.6
20 04:52 Calm 10.00 Fair CLR 66.9 59 76% 30.05 1016.8
20 03:52 SE 6 10.00 Fair CLR 66.9 60.1 79% 30.03 1016.3
20 02:52 Calm 10.00 Fair CLR 68 59 73% 30.04 1016.5
20 01:52 SE 5 10.00 Fair CLR 68 59 73% 30.03 1016.2
20 00:52 E 6 10.00 Fair CLR 69.1 60.1 84 69.1 73% 30.04 1016.6
19 23:52 E 5 10.00 Fair CLR 70 60.1 71% 30.05 1016.9
19 22:52 E 5 10.00 Fair CLR 71.1 61 71% 30.06 1017.2
19 21:52 E 6 10.00 Fair CLR 72 61 68% 30.05 1016.9
19 20:52 E 5 10.00 Fair CLR 75 60.1 60% 77 30.04 1016.9
19 19:52 E 6 10.00 Fair CLR 81 59 47% 81 30.05 1016.9
19 18:52 E 7 10.00 Fair CLR 84 57.9 86 82 41% 83 30.02 1016.1
19 17:52 E 6 10.00 Fair CLR 84.9 55.9 37% 84 30.03 1016.4
19 16:52 E 5 10.00 Fair CLR 84.9 55.9 37% 84 30.04 1016.8
19 15:52 NE 3 10.00 Fair CLR 84.9 55.9 37% 84 30.06 1017.3
19 14:52 N 3 10.00 Fair CLR 84.9 55.9 37% 84 30.08 1017.8
19 13:52 NE 7 10.00 Fair CLR 84 57 40% 83 30.11 1019.1
19 12:52 Calm 10.00 Fair CLR 82.9 57 82.9 61 41% 82 30.12 1019.3
19 11:52 SE 8 10.00 Fair CLR 80.1 57 45% 80 30.13 1019.8
19 10:52 SE 6 10.00 Fair CLR 79 57 47% 80 30.15 1020.3
19 09:52 Vrbl 5 10.00 Fair CLR 75.9 60.1 58% 78 30.15 1020.4
19 08:52 NE 6 10.00 Fair CLR 70 61 73% 30.15 1020.6
19 07:52 NE 5 10.00 Fair CLR 64.9 60.1 84% 30.16 1020.7
19 06:52 N 3 10.00 Fair CLR 61 57.9 64.9 59 90% 30.15 1020.4
19 05:52 N 3 10.00 Fair CLR 62.1 57 84% 30.14 1020.2
19 04:52 Calm 10.00 Fair CLR 62.1 57.9 86% 30.14 1020.0
19 03:52 Calm 10.00 Fair CLR 63 59 87% 30.13 1019.7
19 02:52 NE 3 10.00 Fair CLR 62.1 57.9 86% 30.13 1019.8
19 01:52 N 3 10.00 Fair CLR 64 60.1 87% 30.15 1020.3
19 00:52 Calm 10.00 Fair CLR 64.9 61 84 64.9 87% 30.16 1020.7
18 23:52 Calm 10.00 Fair CLR 68 60.1 76% 30.15 1020.2
18 22:52 E 5 10.00 Fair CLR 68 61 78% 30.14 1020.0
18 21:52 E 6 10.00 Fair CLR 71.1 60.1 68% 30.12 1019.3
18 20:52 E 6 10.00 Fair CLR 75.9 59 56% 78 30.1 1018.5
18 19:52 E 6 10.00 Fair CLR 81 57 44% 81 30.08 1018.1
18 18:52 NE 10 10.00 Fair CLR 84 55.9 87.1 82.9 38% 83 30.09 1018.2
18 17:52 NE 14 10.00 Fair CLR 86 54 33% 84 30.1 1018.4
18 16:52 NE 12 10.00 Fair CLR 86 55.9 36% 85 30.11 1019.0
18 15:52 NE 9 10.00 Fair CLR 87.1 55 34% 85 30.13 1019.5
18 14:52 Calm 10.00 Partly Cloudy SCT070 86 55 35% 84 30.15 1020.1
18 13:52 Calm 10.00 Mostly Cloudy SCT060 BKN075 84 55.9 38% 83 30.16 1020.5
18 12:52 NE 8 10.00 A Few Clouds FEW060 84.9 57 84.9 68 39% 84 30.17 1020.9
18 11:52 Calm 10.00 Fair CLR 84 57.9 41% 83 30.18 1021.3
18 10:52 NE 9 10.00 Fair CLR 82 62.1 51% 83 30.18 1021.4
18 09:52 E 7 10.00 Fair CLR 78.1 62.1 58% 80 30.19 1021.6
18 08:52 E 8 10.00 Fair CLR 73.9 64 71% 30.18 1021.3
18 07:52 NE 7 10.00 A Few Clouds FEW070 71.1 64 79% 30.16 1020.5
18 06:52 NE 7 10.00 Fair CLR 68 64 71.1 66.9 87% 30.14 1020.0
18 05:52 NE 5 10.00 Fair CLR 66.9 64 91% 30.13 1019.5
18 04:52 E 3 10.00 Fair CLR 69.1 64 84% 30.1 1018.5
18 03:52 NE 5 10.00 Fair CLR 69.1 64 84% 30.09 1018.3
18 02:52 NE 3 10.00 Fair CLR 69.1 64.9 87% 30.09 1018.2
18 01:52 NE 6 10.00 Fair CLR 70 64.9 84% 30.11 1018.9
18 00:52 N 5 10.00 Fair CLR 71.1 66 87.1 71.1 84% 30.12 1019.4
17 22:52 NE 5 10.00 Fair CLR 73 66 79% 30.09 1018.4
17 21:52 NE 5 10.00 Fair CLR 75 64.9 71% 77 30.07 1017.7
17 20:52 NE 5 10.00 Fair CLR 78.1 64.9 64% 80 30.04 1016.6
17 19:52 NE 10 10.00 Fair CLR 84 63 49% 85 30.02 1015.8
17 18:52 NE 10 10.00 Fair CLR 87.1 60.1 90 81 40% 87 30.02 1015.7
17 17:52 NE 14 10.00 Partly Cloudy SCT050 89.1 64 43% 90 30 1015.0
17 16:52 NE 9 10.00 Mostly Cloudy BKN045 BKN055 87.1 68 53% 91 30 1015.0
17 15:52 N 10 10.00 A Few Clouds FEW048 89.1 68 50% 93 30.02 1015.7
17 14:52 Vrbl 6 10.00 Partly Cloudy FEW034 SCT043 87.1 70 57% 92 30.04 1016.4
Date Time (cdt) Wind (mph) Vis. (mi.) Weather Sky Cond. Air Dwpt Max. Min. Relative Humidity Wind Chill (°F) Heat Index (°F) altimeter (in) sea level (mb) 1 hr 3 hr 6 hr
6 hour
Temperature (ºF) Pressure Precipitation (in)